Wind_Speed
13 11 7 3 3 5 7 8 9 9 7 7 7 6 5 5 6 6 6 4 3 2 2 4 4 4 3 5 8 10 11 11 10 11 12 12 12 11 10 10 10 10 11
14 10 6 4 2 3 5 8 10 10 8 7 7 8 6 5 5 4 5 4 2 1 1 1 2 1 3 5 5 6 7 8 8 9 10 10 10 10 11 11 12 12 12
13 11 9 8 4 2 6 10 11 7 7 7 7 8 8 7 5 4 3 3 2 2 1 1 1 1 2 2 3 4 5 6 7 8 9 10 11 11 12 12 12 12 12
13 11 9 8 6 4 3 9 9 9 7 7 7 7 8 7 5 3 3 3 2 2 1 1 1 0 1 1 2 3 4 6 7 8 9 10 11 12 12 13 13 13 12
12 11 10 10 7 2 4 5 6 8 6 7 8 8 8 7 7 5 4 3 3 3 2 2 2 2 3 3 4 4 5 7 8 9 10 11 12 12 12 11 11 11 11
11 11 12 10 7 1 3 4 6 7 6 6 7 8 8 7 7 8 7 5 3 3 3 3 2 2 3 4 5 5 6 7 7 8 8 9 9 9 9 9 10 11 10
12 13 13 12 6 3 2 5 6 7 7 7 7 7 7 8 8 8 8 8 7 4 3 3 3 3 3 4 6 6 6 7 6 7 6 7 7 7 7 8 9 10 10
14 16 16 15 8 6 5 8 7 7 8 8 7 6 7 7 8 8 8 8 7 6 6 5 4 3 3 4 6 6 6 7 7 8 7 7 7 8 8 8 9 10 10
16 18 17 16 12 10 8 10 10 9 8 6 6 6 6 6 7 8 8 8 7 6 5 4 4 4 5 6 8 8 8 8 9 9 9 9 9 9 10 11 13 12 12
20 21 20 18 15 13 12 13 13 11 10 9 7 6 6 5 5 6 7 7 7 7 6 5 5 5 6 7 8 10 9 9 10 12 13 12 12 12 13 14 15 15 14
19 24 23 21 19 17 15 15 15 13 12 12 10 8 6 5 4 5 5 5 6 7 7 7 7 8 9 10 11 12 10 11 11 13 14 14 14 13 15 17 17 17 17
19 21 23 23 21 20 18 18 17 16 15 14 13 12 10 8 7 6 7 6 6 6 7 8 9 9 10 11 12 14 13 12 12 14 15 16 15 15 17 17 17 17 16
18 19 20 22 22 22 21 21 20 19 18 18 16 15 14 12 10 10 10 9 8 8 8 9 10 10 11 11 12 14 14 14 14 14 16 17 17 16 17 16 15 16 16
25 23 22 22 23 23 23 22 21 21 21 21 20 20 17 17 14 12 13 12 12 12 11 12 12 13 13 13 13 14 13 14 15 16 17 17 16 16 16 15 15 15 16
31 28 26 25 24 23 22 23 22 23 22 23 23 22 20 18 17 15 14 14 16 15 14 14 14 15 16 16 16 17 15 15 15 16 16 16 16 15 15 15 15 16 16
34 37 35 34 31 30 27 24 23 23 24 23 23 24 23 22 20 21 16 16 18 17 16 16 16 17 18 18 18 18 16 16 15 15 15 15 16 16 15 16 16 16 18
34 33 36 37 35 32 30 28 26 25 25 23 22 24 22 21 21 19 19 21 20 19 18 18 19 19 20 20 20 20 19 16 15 14 15 15 16 17 17 18 18 19 20
38 36 35 35 36 33 32 30 28 27 27 25 23 23 22 22 21 19 21 22 22 21 22 22 22 22 22 22 21 20 19 17 15 14 14 14 15 16 18 19 20 22 23
43 41 40 41 39 36 35 32 31 30 30 28 26 26 25 25 24 24 24 24 25 24 22 22 22 22 23 23 22 21 18 17 15 14 13 14 15 16 18 19 21 23 25
49 46 44 42 43 40 37 37 35 35 34 33 31 31 29 24 22 22 23 24 25 22 21 21 21 21 22 23 22 20 18 17 15 14 14 15 16 18 19 21 23 25 27
56 56 53 45 44 46 46 44 40 37 37 37 33 32 29 26 23 21 23 25 23 22 21 22 21 20 21 23 22 21 19 18 16 15 16 17 19 21 23 24 26 28 29
43 50 52 54 54 47 48 45 42 38 40 38 36 37 33 30 26 23 23 23 23 23 21 22 21 19 20 22 22 21 20 19 18 18 19 20 22 24 26 28 30 31 32
39 38 40 45 49 52 47 44 46 42 44 42 41 41 37 31 29 25 23 24 25 25 24 23 21 20 19 21 23 23 22 21 21 20 21 23 25 28 30 32 34 35 36
40 41 41 41 42 55 56 52 50 48 48 45 42 40 40 35 32 29 28 26 27 29 27 24 23 22 20 22 24 24 24 24 23 24 24 26 28 31 32 34 36 38 40
33 42 46 47 47 47 52 57 55 54 53 48 46 42 41 40 38 34 31 29 29 30 31 27 25 23 25 26 27 27 26 26 26 27 27 29 31 33 35 37 39 41 43
25 30 36 47 51 51 54 56 56 58 59 52 48 45 46 41 41 39 34 33 30 31 34 32 29 26 25 29 27 31 31 29 29 30 31 32 33 34 37 39 41 43 44
Wind_Direction
175 157 138 137 96 77 21 19 21 6 360 358 356 349 339 326 330 337 339 329 310 323 219 230 230 227 204 204 213 220 231 241 250 255 265 275 280 280 281 294 300 299 300
184 177 161 164 144 88 27 12 8 0 349 348 356 359 347 335 335 343 350 352 355 80 203 215 230 187 133 176 207 228 237 245 253 257 263 270 275 283 290 292 294 296 298
189 189 175 172 172 104 11 7 354 345 350 355 359 6 6 354 344 349 358 10 22 78 115 137 162 159 154 163 200 223 236 247 252 263 272 277 283 285 286 291 294 298 298
196 188 187 183 168 142 21 5 353 346 348 360 6 12 16 18 11 350 353 8 9 36 80 144 198 311 290 242 229 240 252 258 262 267 273 279 283 288 290 293 297 297 296
215 191 194 189 183 162 4 1 356 329 334 353 359 9 19 26 31 29 22 11 3 5 4 350 332 319 290 281 275 270 269 270 275 276 284 283 282 287 292 298 297 297 296
220 210 200 195 182 171 333 319 336 317 327 347 360 5 11 24 38 44 45 44 33 14 6 359 344 324 318 311 302 295 292 289 292 295 287 283 284 287 292 297 295 294 297
231 214 208 197 194 261 280 285 313 314 321 336 351 6 13 16 28 45 51 55 58 54 40 19 353 339 322 309 303 302 302 303 313 304 301 300 303 302 302 298 297 297 307
227 214 208 203 219 235 251 262 266 289 306 323 337 351 4 22 33 36 42 45 48 51 55 49 32 12 348 330 314 312 317 320 316 310 310 303 307 312 307 303 300 299 306
226 213 209 210 227 238 246 254 258 271 283 307 324 335 355 18 38 41 44 48 46 42 34 22 9 352 335 327 321 315 321 320 316 311 309 307 308 307 305 298 295 299 299
227 216 213 222 234 237 244 245 250 259 273 283 292 317 330 348 16 34 41 41 44 33 22 7 349 333 322 321 310 311 320 319 315 315 311 310 308 307 304 296 296 298 295
233 225 228 228 232 236 244 246 252 257 268 275 279 281 292 304 327 345 359 12 23 24 16 6 352 340 329 326 318 316 322 322 319 312 307 306 308 309 300 296 298 295 291
240 238 235 229 235 241 244 247 252 258 263 265 271 275 278 277 284 297 312 321 338 348 353 347 346 341 332 327 319 317 324 321 315 311 307 307 306 305 297 298 297 294 293
246 243 243 242 243 243 244 245 251 256 261 261 262 267 275 276 277 283 292 297 303 314 321 319 324 326 326 324 319 314 318 319 315 310 306 305 304 303 297 298 296 294 293
247 248 245 245 245 246 247 249 250 254 260 262 260 260 266 273 272 278 283 285 289 299 302 305 308 311 314 314 312 310 313 313 312 309 304 302 302 300 297 297 297 296 294
243 242 245 249 250 249 251 252 253 253 258 259 260 261 261 261 268 276 274 275 282 288 292 294 299 305 306 306 306 306 307 307 306 305 305 304 301 298 298 296 295 293 291
248 245 246 251 251 252 251 252 255 256 258 259 263 266 263 259 263 274 267 271 280 284 286 288 290 294 296 297 295 294 296 299 303 306 305 303 302 300 296 294 293 291 291
247 255 252 251 251 249 251 252 254 254 255 261 260 262 260 256 258 263 271 274 274 278 282 286 291 292 290 290 289 290 294 298 300 304 304 303 302 301 300 297 296 293 288
241 244 251 252 253 252 249 251 255 255 259 259 252 255 254 253 259 268 272 273 276 278 281 284 290 289 285 283 281 282 287 291 293 296 299 304 306 306 304 303 300 294 292
245 244 245 250 254 256 256 252 252 253 255 259 250 245 248 256 262 269 269 271 275 278 280 287 291 288 282 277 275 277 280 283 286 290 297 304 309 311 310 308 304 301 298
241 244 244 239 250 253 255 257 251 251 251 252 252 251 252 258 261 265 267 271 273 273 280 286 290 287 279 274 271 272 273 275 279 286 295 303 307 310 312 310 307 304 300
242 241 239 239 242 249 251 253 253 251 253 254 255 254 258 262 260 258 266 274 274 271 275 286 287 284 277 271 268 269 270 271 277 286 294 300 305 307 308 309 307 303 301
236 241 240 238 238 242 248 251 253 257 258 256 256 257 256 257 260 256 264 275 272 268 274 284 283 284 281 272 269 267 266 269 276 284 291 298 302 305 306 306 306 304 301
241 239 239 236 232 233 240 245 249 245 251 251 251 256 257 257 256 258 265 271 272 267 270 278 281 283 281 277 269 266 267 268 274 282 291 298 302 304 306 307 305 304 302
239 239 240 240 235 231 235 241 247 250 251 255 256 259 262 258 256 262 270 271 273 273 267 274 276 277 277 275 270 266 266 269 275 283 289 296 301 306 307 307 305 304 303
241 238 236 236 238 237 236 241 244 249 254 254 255 258 257 257 256 257 264 267 274 274 267 268 271 271 274 270 268 267 267 271 275 282 287 293 299 305 307 308 306 305 303
262 254 244 237 236 235 238 240 243 245 248 250 250 252 257 259 256 256 259 265 270 273 268 264 266 267 277 268 266 270 268 270 276 281 285 290 296 301 305 306 304 303 301
Height
3166 3167 3168 3169 3171 3171 3172 3172 3171 3170 3169 3168 3166 3165 3164 3163 3162 3161 3159 3158 3157 3157 3156 3157 3157 3157 3158 3159 3159 3161 3161 3161 3163 3164 3164 3164 3164 3164 3164 3163 3163 3163 3163
3165 3166 3166 3168 3170 3171 3172 3171 3170 3169 3169 3168 3167 3165 3164 3163 3162 3160 3159 3158 3157 3157 3157 3157 3157 3157 3158 3158 3159 3160 3161 3162 3162 3163 3163 3163 3163 3162 3162 3163 3162 3162 3162
3164 3165 3166 3167 3169 3170 3171 3171 3171 3170 3169 3168 3167 3165 3164 3162 3161 3160 3159 3158 3158 3158 3158 3158 3158 3158 3158 3158 3159 3160 3160 3161 3161 3161 3162 3162 3162 3161 3161 3160 3160 3160 3160
3163 3164 3165 3167 3168 3169 3170 3171 3171 3170 3169 3168 3167 3166 3164 3163 3162 3161 3160 3159 3158 3158 3159 3159 3159 3159 3159 3159 3159 3160 3160 3161 3161 3161 3161 3161 3160 3160 3159 3159 3158 3158 3157
3162 3163 3165 3166 3167 3168 3169 3170 3170 3170 3169 3168 3167 3166 3164 3163 3162 3160 3159 3159 3159 3158 3158 3158 3159 3159 3159 3159 3159 3159 3159 3159 3160 3160 3160 3160 3159 3158 3158 3157 3156 3156 3155
3161 3162 3164 3165 3166 3167 3168 3169 3169 3169 3169 3168 3167 3166 3165 3163 3162 3160 3159 3159 3158 3158 3158 3158 3158 3158 3158 3158 3158 3158 3158 3159 3159 3159 3159 3159 3157 3157 3156 3155 3155 3154 3153
3160 3161 3163 3164 3165 3166 3167 3168 3168 3168 3168 3168 3167 3166 3165 3164 3162 3161 3160 3159 3159 3158 3158 3158 3158 3158 3158 3158 3158 3158 3158 3158 3159 3158 3157 3156 3155 3155 3154 3154 3153 3152 3151
3159 3160 3161 3162 3164 3165 3166 3167 3168 3168 3168 3167 3167 3166 3165 3164 3163 3162 3161 3160 3160 3159 3159 3159 3159 3159 3159 3158 3158 3157 3158 3158 3157 3156 3156 3155 3154 3153 3153 3152 3151 3150 3150
3157 3157 3159 3160 3162 3163 3164 3165 3166 3167 3167 3167 3166 3166 3165 3164 3163 3162 3162 3161 3160 3160 3160 3160 3160 3159 3159 3158 3158 3157 3158 3157 3156 3154 3153 3153 3152 3152 3151 3150 3149 3149 3148
3154 3155 3157 3158 3159 3160 3162 3163 3164 3165 3165 3165 3165 3165 3165 3164 3164 3163 3162 3162 3161 3161 3160 3160 3160 3159 3158 3158 3156 3156 3156 3155 3154 3152 3152 3150 3150 3149 3148 3147 3146 3146 3145
3151 3152 3154 3155 3157 3158 3159 3161 3162 3163 3163 3164 3164 3164 3164 3164 3164 3163 3162 3162 3161 3161 3160 3160 3159 3159 3158 3157 3156 3154 3155 3153 3152 3151 3149 3148 3148 3148 3146 3145 3144 3142 3141
3147 3149 3151 3152 3154 3155 3157 3158 3159 3160 3161 3162 3162 3163 3162 3162 3163 3163 3162 3161 3161 3160 3159 3159 3158 3158 3157 3156 3154 3152 3153 3152 3151 3149 3148 3146 3145 3145 3142 3142 3141 3139 3138
3144 3145 3147 3149 3150 3152 3153 3155 3156 3158 3159 3159 3160 3160 3161 3161 3161 3162 3161 3160 3160 3159 3159 3158 3157 3156 3155 3154 3152 3151 3151 3149 3149 3147 3146 3144 3143 3141 3139 3139 3138 3137 3136
3140 3142 3143 3145 3147 3148 3150 3151 3153 3155 3156 3156 3156 3157 3159 3159 3159 3159 3159 3158 3158 3158 3157 3156 3155 3153 3152 3151 3150 3148 3148 3147 3146 3145 3143 3141 3139 3138 3136 3136 3135 3134 3134
3134 3136 3138 3140 3143 3145 3146 3147 3149 3150 3152 3152 3152 3153 3155 3156 3156 3156 3156 3155 3155 3155 3155 3154 3152 3151 3150 3149 3147 3145 3145 3144 3143 3142 3140 3138 3136 3135 3133 3132 3132 3131 3130
3127 3130 3133 3134 3138 3140 3142 3143 3144 3146 3147 3148 3148 3149 3151 3152 3153 3153 3153 3152 3152 3151 3151 3150 3149 3148 3147 3146 3145 3143 3142 3141 3139 3138 3137 3135 3133 3132 3131 3130 3128 3127 3126
3120 3122 3124 3128 3131 3134 3136 3138 3139 3142 3142 3143 3144 3144 3147 3147 3149 3149 3149 3148 3148 3148 3147 3146 3146 3145 3144 3142 3142 3139 3138 3138 3136 3135 3134 3132 3131 3130 3128 3127 3125 3124 3122
3115 3115 3116 3119 3122 3127 3130 3132 3133 3135 3137 3139 3139 3139 3142 3143 3144 3145 3145 3144 3144 3144 3143 3142 3141 3140 3139 3139 3138 3136 3135 3134 3134 3132 3131 3129 3128 3126 3125 3123 3121 3119 3117
3109 3110 3111 3111 3113 3118 3122 3125 3127 3129 3131 3133 3134 3136 3137 3138 3139 3140 3139 3139 3139 3139 3138 3137 3136 3135 3135 3134 3133 3133 3132 3131 3130 3129 3127 3126 3124 3122 3121 3119 3117 3115 3113
3102 3104 3105 3106 3107 3110 3113 3116 3118 3121 3123 3126 3129 3130 3131 3132 3133 3133 3134 3134 3134 3133 3133 3132 3131 3131 3130 3129 3129 3129 3128 3127 3126 3125 3124 3122 3120 3119 3117 3115 3113 3111 3108
3089 3094 3098 3099 3099 3102 3104 3106 3110 3113 3116 3118 3121 3124 3125 3126 3127 3128 3128 3127 3128 3128 3128 3128 3127 3126 3125 3125 3125 3124 3124 3123 3122 3120 3119 3118 3117 3115 3113 3111 3108 3105 3102
3080 3082 3086 3089 3093 3093 3096 3099 3101 3106 3108 3111 3113 3114 3117 3120 3121 3122 3122 3122 3123 3123 3123 3123 3122 3121 3121 3121 3121 3120 3119 3119 3117 3116 3115 3113 3112 3110 3108 3105 3102 3099 3096
3071 3074 3077 3079 3082 3086 3088 3091 3092 3095 3097 3099 3104 3105 3110 3114 3115 3117 3117 3117 3118 3118 3119 3118 3117 3117 3117 3116 3116 3116 3115 3114 3112 3111 3109 3107 3106 3104 3101 3098 3094 3091 3088
3062 3065 3067 3070 3072 3076 3079 3081 3082 3085 3087 3091 3096 3100 3102 3106 3109 3110 3111 3111 3112 3113 3112 3113 3112 3112 3112 3111 3111 3110 3109 3108 3107 3106 3104 3102 3099 3097 3093 3090 3086 3082 3079
3052 3055 3057 3060 3063 3066 3069 3070 3073 3076 3078 3082 3086 3091 3094 3097 3100 3103 3104 3105 3106 3106 3106 3106 3107 3106 3106 3106 3105 3104 3103 3102 3101 3099 3098 3095 3093 3090 3086 3082 3078 3073 3069
3045 3046 3048 3050 3053 3056 3058 3060 3063 3067 3068 3073 3077 3082 3085 3089 3092 3095 3097 3098 3100 3099 3099 3100 3100 3100 3100 3100 3099 3098 3097 3095 3094 3092 3090 3088 3086 3084 3080 3075 3070 3065 3060